{"data":{"norad_id":68329,"epoch":"2026-05-24T00:00:40.179456Z","epoch_age_seconds":154782,"freshness":"FRESH","line1":"1 68329U 26059J   26144.00046504 -.00151581  00000+0 -27588-2 0  9990","line2":"2 68329  53.1611 354.3575 0000993 108.3490 251.7628 15.49429226  9762","mean_motion":15.49429226,"eccentricity":9.93e-5,"inclination_deg":53.1611,"raan_deg":354.3575,"arg_perigee_deg":108.349,"mean_anomaly_deg":251.7628,"bstar":-0.0027588,"rev_number":976,"period_min":92.937449212669,"perigee_km":417.71978510405,"apogee_km":419.06957629583,"semimajor_km":6796.5316806999,"source":"CELESTRAK","updated_at":"2026-05-25T13:38:21.922867Z"}}